Orbital Elements at Epoch 2459200.5 (2020-Dec-17.0) TDB
Reference: JPL 21 (heliocentric ecliptic J2000)
Element | Value | Uncertainty (1-sigma) | Units |
e | .1262141835544599 | 3.8258e-08 | |
a | 2.576961319291146 | 1.4683e-08 | au |
q | 2.25171225032539 | 9.6581e-08 | au |
i | 7.916943618376005 | 5.1536e-06 | deg |
node | 324.2323790511104 | 2.9247e-05 | deg |
peri | 275.9217056242981 | 3.6522e-05 | deg |
M | 185.4731456368717 | 2.2936e-05 | deg |
tp | 2459933.020927876538 (2022-Dec-19.52092788) | 9.8916e-05 | TDB |
period | 1510.985429708555 4.14 | 1.2914e-05 3.536e-08 | d yr |
n | .2382551101564483 | 2.0363e-09 | deg/d |
Q | 2.902210388256901 | 1.6536e-08 | au |
|
| | Orbit Determination Parameters
Additional Information
|